Le nostre stazioni meteo in Italia

Pubblicità
Il mio iltempo24.it
Logan Botanic Garden, Gran Bretagna (99193): Temperatura & dewpoint: 16.10.2018 07:00:00 - 22.10.2018 07:00:00 (BST)Logan Botanic Garden, Gran Bretagna (99193): Temperatura -20cm: 16.10.2018 07:00:00 - 22.10.2018 07:00:00 (BST)Logan Botanic Garden, Gran Bretagna (99193): precipitazioni: 16.10.2018 07:00:00 - 22.10.2018 07:00:00 (BST)
Data & Tempo tt [°C] td [°C] tt -20cm [°C] rr [mm]
22.10.2018 07:00:00 9,2 5,5 - 0,0
22.10.2018 06:00:00 9,4 5,6 - 0,0
22.10.2018 05:00:00 9,8 5,9 - 0,0
22.10.2018 04:00:00 10,2 5,0 - 0,0
22.10.2018 03:00:00 9,7 5,6 - 0,0
22.10.2018 02:00:00 9,8 5,3 - 0,0
22.10.2018 01:00:00 9,5 6,2 - 0,0
22.10.2018 00:00:00 10,0 6,0 - 0,0
21.10.2018 23:00:00 10,0 5,7 - 0,0
21.10.2018 22:00:00 10,4 5,2 - 0,0
21.10.2018 21:00:00 10,6 4,7 - 0,0
21.10.2018 20:00:00 10,6 3,2 - 0,0
21.10.2018 19:00:00 11,0 4,1 - 0,0
21.10.2018 18:00:00 10,9 3,5 - 0,0
21.10.2018 17:00:00 11,4 5,7 - 0,0
21.10.2018 16:00:00 12,2 6,6 - 0,0
21.10.2018 15:00:00 12,9 9,1 - 0,0
21.10.2018 14:00:00 12,6 9,0 - 0,0
21.10.2018 13:00:00 12,1 8,4 - 0,0
21.10.2018 12:00:00 11,6 10,5 - 0,2
21.10.2018 11:00:00 10,9 9,9 - 0,0
21.10.2018 10:00:00 11,5 10,9 12,0 0,8
21.10.2018 09:00:00 13,7 13,3 - 0,0
21.10.2018 08:00:00 13,6 13,2 - 0,0
21.10.2018 07:00:00 13,7 13,3 - 0,0
21.10.2018 06:00:00 13,7 13,1 - 0,0
21.10.2018 05:00:00 13,7 13,1 - 0,0
21.10.2018 04:00:00 13,8 13,2 - 0,0
21.10.2018 03:00:00 13,7 13,1 - 0,0
21.10.2018 02:00:00 13,9 13,2 - 0,0
21.10.2018 01:00:00 13,9 13,3 - 0,0
21.10.2018 00:00:00 13,8 13,3 - 0,0
20.10.2018 23:00:00 14,1 13,2 - 0,0
20.10.2018 22:00:00 14,1 13,2 - 0,0
20.10.2018 21:00:00 14,1 13,1 - 0,0
20.10.2018 20:00:00 13,6 13,0 - 0,0
20.10.2018 19:00:00 13,5 13,1 - 0,2
20.10.2018 18:00:00 13,2 12,9 - 0,4
20.10.2018 17:00:00 13,3 12,7 - 0,6
20.10.2018 16:00:00 13,4 12,6 - 0,0
20.10.2018 15:00:00 13,2 12,5 - 0,2
20.10.2018 14:00:00 13,7 12,3 - 0,0
20.10.2018 13:00:00 13,3 12,0 - 0,0
20.10.2018 12:00:00 13,6 12,3 - 0,0
20.10.2018 11:00:00 13,3 12,1 - 0,0
20.10.2018 10:00:00 12,9 12,3 11,7 0,0
20.10.2018 09:00:00 12,6 12,2 - 0,2
20.10.2018 08:00:00 12,5 12,2 - 0,6
20.10.2018 07:00:00 13,1 12,3 - 0,0
20.10.2018 06:00:00 13,1 11,7 - 0,0
20.10.2018 05:00:00 13,1 11,6 - 0,0
20.10.2018 04:00:00 13,3 11,4 - 0,0
20.10.2018 03:00:00 13,1 11,7 - 0,0
20.10.2018 02:00:00 13,0 11,7 - 0,0
20.10.2018 01:00:00 12,8 11,3 - 0,0
20.10.2018 00:00:00 12,7 11,3 - 0,0
19.10.2018 23:00:00 12,9 11,4 - 0,0
19.10.2018 22:00:00 12,9 11,6 - 0,0
19.10.2018 21:00:00 12,9 11,2 - 0,0
19.10.2018 20:00:00 12,6 10,8 - 0,0
19.10.2018 19:00:00 12,8 11,0 - 0,0
19.10.2018 18:00:00 12,8 10,8 - 0,0
19.10.2018 17:00:00 13,1 10,4 - 0,0
19.10.2018 16:00:00 14,0 11,0 - 0,0
19.10.2018 15:00:00 13,2 10,4 - 0,0
19.10.2018 14:00:00 12,2 9,9 - 0,0
19.10.2018 13:00:00 12,0 9,5 - 0,0
19.10.2018 12:00:00 11,9 8,8 - 0,0
19.10.2018 11:00:00 11,7 8,1 - 0,0
19.10.2018 10:00:00 11,6 7,8 11,7 0,0
19.10.2018 09:00:00 11,6 8,4 - 0,0
19.10.2018 08:00:00 11,5 7,5 - 0,0
19.10.2018 07:00:00 11,2 6,8 - 0,0
19.10.2018 06:00:00 11,0 6,6 - 0,0
19.10.2018 05:00:00 10,6 5,9 - 0,0
19.10.2018 04:00:00 10,7 6,1 - 0,0
19.10.2018 03:00:00 10,5 5,9 - 0,0
19.10.2018 02:00:00 10,8 5,7 - 0,0
19.10.2018 01:00:00 9,4 5,2 - 0,0
19.10.2018 00:00:00 10,3 5,6 - 0,0
18.10.2018 23:00:00 9,3 5,3 - 0,0
18.10.2018 22:00:00 9,9 5,9 - 0,0
18.10.2018 21:00:00 9,2 5,9 - 0,0
18.10.2018 20:00:00 8,7 5,0 - 0,0
18.10.2018 19:00:00 7,1 4,8 - 0,0
18.10.2018 18:00:00 9,1 5,0 - 0,0
18.10.2018 17:00:00 10,6 4,5 - 0,0
18.10.2018 16:00:00 12,1 6,1 - 0,0
18.10.2018 15:00:00 12,2 6,4 - 0,0
18.10.2018 14:00:00 12,0 7,4 - 0,0
18.10.2018 13:00:00 11,4 8,6 - 0,0
18.10.2018 12:00:00 11,2 6,7 - 0,0
18.10.2018 11:00:00 12,3 7,1 - 0,0
18.10.2018 10:00:00 8,8 8,7 11,9 0,0
18.10.2018 09:00:00 5,6 5,2 - 0,0
18.10.2018 08:00:00 5,7 5,0 - 0,0
18.10.2018 07:00:00 7,1 5,9 - 0,0
18.10.2018 06:00:00 8,4 7,6 - 0,0
18.10.2018 05:00:00 7,9 6,8 - 0,0
18.10.2018 04:00:00 8,1 6,7 - 0,0
18.10.2018 03:00:00 8,4 6,7 - 0,0
18.10.2018 02:00:00 7,7 6,4 - 0,0
18.10.2018 01:00:00 7,9 6,3 - 0,0
18.10.2018 00:00:00 9,3 5,9 - 0,0
17.10.2018 23:00:00 10,3 6,5 - 0,0
17.10.2018 22:00:00 9,0 5,5 - 0,0
17.10.2018 21:00:00 8,7 5,5 - 0,0
17.10.2018 20:00:00 9,2 5,1 - 0,0
17.10.2018 19:00:00 9,6 5,3 - 0,0
17.10.2018 18:00:00 10,8 5,6 - 0,0
17.10.2018 17:00:00 11,2 4,8 - 0,0
17.10.2018 16:00:00 12,2 5,2 - 0,0
17.10.2018 15:00:00 12,1 6,5 - 0,0
17.10.2018 14:00:00 12,6 7,0 - 0,0
17.10.2018 13:00:00 13,0 7,6 - 0,0
17.10.2018 12:00:00 12,5 7,9 - 0,0
17.10.2018 11:00:00 11,5 9,3 - 0,0
17.10.2018 10:00:00 10,9 9,7 12,0 0,0
17.10.2018 09:00:00 10,4 9,3 - 0,0
17.10.2018 08:00:00 10,4 9,2 - 0,0
17.10.2018 07:00:00 10,3 9,2 - 0,0
17.10.2018 06:00:00 10,1 8,9 - 0,0
17.10.2018 05:00:00 10,4 9,0 - 0,0
17.10.2018 04:00:00 11,0 9,5 - 0,0
17.10.2018 03:00:00 11,4 9,5 - 0,0
17.10.2018 02:00:00 12,1 9,8 - 0,0
17.10.2018 01:00:00 12,2 9,8 - 0,0
17.10.2018 00:00:00 11,9 9,2 - 0,0
16.10.2018 23:00:00 12,5 10,1 - 0,0
16.10.2018 22:00:00 12,8 9,6 - 0,0
16.10.2018 21:00:00 13,0 12,2 - 0,0
16.10.2018 20:00:00 13,1 12,5 - 0,0
16.10.2018 19:00:00 13,2 12,5 - 0,0
16.10.2018 18:00:00 13,4 12,5 - 0,0
16.10.2018 17:00:00 13,5 12,3 - 0,0
16.10.2018 16:00:00 13,2 12,2 - 0,0
16.10.2018 15:00:00 12,8 11,9 - 0,0
16.10.2018 14:00:00 12,1 11,3 - 0,2
16.10.2018 13:00:00 12,0 10,3 - 0,2
16.10.2018 12:00:00 13,1 10,2 - 0,0
16.10.2018 11:00:00 13,2 10,8 - 0,0
16.10.2018 10:00:00 13,0 11,0 12,0 0,0
16.10.2018 09:00:00 12,9 10,9 - 0,0
16.10.2018 08:00:00 12,5 10,1 - 0,0
16.10.2018 07:00:00 11,9 10,2 - 0,0

tt = Temperatura
td = dewpoint
tt -20cm = Temperatura -20cm
rr = precipitazioni

Stazioni seguenti

WeatherPro
AMSI
MeteoEarth